{"data":{"norad_id":65968,"epoch":"2026-05-24T23:52:11.114976Z","epoch_age_seconds":71579,"freshness":"FRESH","line1":"1 65968U 25228X   26144.99457309  .00000170  00000+0  51295-4 0  9999","line2":"2 65968  51.9006   0.6888 0000836 110.6940 249.4112 14.79933299 34843","mean_motion":14.79933299,"eccentricity":8.36e-5,"inclination_deg":51.9006,"raan_deg":0.6888,"arg_perigee_deg":110.694,"mean_anomaly_deg":249.4112,"bstar":5.1295e-5,"rev_number":3484,"period_min":97.301682513193,"perigee_km":628.94884395335,"apogee_km":630.12052665914,"semimajor_km":7007.6716853062,"source":"CELESTRAK","updated_at":"2026-05-25T13:38:05.873410Z"}}